Time,TemperatureF,DewpointF,PressureIn,WindDirection,WindDirectionDegrees,WindSpeedMPH,WindSpeedGustMPH,Humidity,HourlyPrecipIn,Conditions,Clouds,dailyrainin,SoftwareType,DateUTC
2013-08-25 00:01:00,69.8,62.3,30.25,ESE,115,0.0,0.0,77,0.00,,,0.00,Wunderground v.1.15,2013-08-25 04:01:00,
2013-08-25 00:02:00,69.7,62.2,30.25,ESE,115,0.0,0.0,77,0.00,,,0.00,Wunderground v.1.15,2013-08-25 04:02:00,
2013-08-25 00:03:00,69.7,62.2,30.25,ESE,115,0.0,0.0,77,0.00,,,0.00,Wunderground v.1.15,2013-08-25 04:03:00,
2013-08-25 00:08:00,69.5,62.3,30.25,ESE,115,0.0,0.0,78,0.00,,,0.00,Wunderground v.1.15,2013-08-25 04:08:00,
2013-08-25 00:13:00,69.3,62.1,30.24,ESE,115,0.0,0.0,78,0.00,,,0.00,Wunderground v.1.15,2013-08-25 04:13:00,
2013-08-25 00:18:00,69.3,62.1,30.24,ESE,115,0.0,0.0,78,0.00,,,0.00,Wunderground v.1.15,2013-08-25 04:18:00,
2013-08-25 00:24:00,69.6,62.1,30.25,ESE,115,0.0,0.0,77,0.00,,,0.00,Wunderground v.1.15,2013-08-25 04:24:00,
2013-08-25 00:29:00,69.8,61.9,30.25,ESE,115,0.0,0.0,76,0.00,,,0.00,Wunderground v.1.15,2013-08-25 04:29:00,
2013-08-25 00:34:00,70.0,62.1,30.25,ESE,115,0.0,0.0,76,0.00,,,0.00,Wunderground v.1.15,2013-08-25 04:34:00,
2013-08-25 00:40:00,70.0,62.1,30.25,ESE,115,0.0,0.0,76,0.00,,,0.00,Wunderground v.1.15,2013-08-25 04:40:00,
2013-08-25 00:46:00,70.0,61.7,30.25,ESE,115,0.0,0.0,75,0.00,,,0.00,Wunderground v.1.15,2013-08-25 04:46:00,
2013-08-25 00:51:00,69.9,61.2,30.25,ESE,115,0.0,0.0,74,0.00,,,0.00,Wunderground v.1.15,2013-08-25 04:51:00,
2013-08-25 00:57:00,69.8,61.5,30.25,ESE,115,0.0,0.0,75,0.00,,,0.00,Wunderground v.1.15,2013-08-25 04:57:00,
2013-08-25 01:03:00,69.7,61.4,30.25,ESE,115,0.0,0.0,75,0.00,,,0.00,Wunderground v.1.15,2013-08-25 05:03:00,
2013-08-25 01:08:00,69.6,61.3,30.25,ESE,115,0.0,0.0,75,0.00,,,0.00,Wunderground v.1.15,2013-08-25 05:08:00,
2013-08-25 01:14:00,69.5,61.2,30.25,ESE,115,0.0,0.0,75,0.00,,,0.00,Wunderground v.1.15,2013-08-25 05:14:00,
2013-08-25 01:20:00,69.4,61.1,30.26,ESE,115,0.0,0.0,75,0.00,,,0.00,Wunderground v.1.15,2013-08-25 05:20:00,
2013-08-25 01:25:00,69.3,61.4,30.26,ESE,115,0.0,0.0,76,0.00,,,0.00,Wunderground v.1.15,2013-08-25 05:25:00,
2013-08-25 01:31:00,69.1,60.8,30.25,ESE,115,0.0,0.0,75,0.00,,,0.00,Wunderground v.1.15,2013-08-25 05:31:00,
2013-08-25 01:36:00,69.1,60.8,30.25,ESE,115,0.0,0.0,75,0.00,,,0.00,Wunderground v.1.15,2013-08-25 05:36:00,
2013-08-25 01:42:00,69.1,60.8,30.25,ESE,115,0.0,0.0,75,0.00,,,0.00,Wunderground v.1.15,2013-08-25 05:42:00,
2013-08-25 01:48:00,68.9,60.6,30.25,ESE,115,0.0,0.0,75,0.00,,,0.00,Wunderground v.1.15,2013-08-25 05:48:00,
2013-08-25 01:53:00,68.7,60.5,30.24,ESE,115,0.0,0.0,75,0.00,,,0.00,Wunderground v.1.15,2013-08-25 05:53:00,
2013-08-25 01:59:00,68.5,60.6,30.25,ESE,115,0.0,0.0,76,0.00,,,0.00,Wunderground v.1.15,2013-08-25 05:59:00,
2013-08-25 02:05:00,68.2,60.3,30.25,ESE,115,0.0,0.0,76,0.00,,,0.00,Wunderground v.1.15,2013-08-25 06:05:00,
2013-08-25 02:10:00,68.1,60.2,30.25,ESE,115,0.0,0.0,76,0.00,,,0.00,Wunderground v.1.15,2013-08-25 06:10:00,
2013-08-25 02:15:00,67.8,60.0,30.25,ESE,115,0.0,0.0,76,0.00,,,0.00,Wunderground v.1.15,2013-08-25 06:15:00,
2013-08-25 02:20:00,67.6,59.8,30.25,ESE,115,0.0,0.0,76,0.00,,,0.00,Wunderground v.1.15,2013-08-25 06:20:00,
2013-08-25 02:25:00,67.2,59.7,30.25,ESE,115,0.0,0.0,77,0.00,,,0.00,Wunderground v.1.15,2013-08-25 06:25:00,
2013-08-25 02:30:00,67.0,59.5,30.25,ESE,115,0.0,0.0,77,0.00,,,0.00,Wunderground v.1.15,2013-08-25 06:30:00,
2013-08-25 02:35:00,66.8,59.7,30.25,ESE,115,0.0,0.0,78,0.00,,,0.00,Wunderground v.1.15,2013-08-25 06:35:00,
2013-08-25 02:40:00,66.6,59.5,30.25,ESE,115,0.0,0.0,78,0.00,,,0.00,Wunderground v.1.15,2013-08-25 06:40:00,
2013-08-25 02:45:00,66.3,59.2,30.25,ESE,115,0.0,0.0,78,0.00,,,0.00,Wunderground v.1.15,2013-08-25 06:45:00,
2013-08-25 02:50:00,66.2,59.5,30.25,ESE,115,0.0,0.0,79,0.00,,,0.00,Wunderground v.1.15,2013-08-25 06:50:00,
2013-08-25 02:55:00,66.0,59.3,30.25,ESE,115,0.0,0.0,79,0.00,,,0.00,Wunderground v.1.15,2013-08-25 06:55:00,
2013-08-25 03:00:00,65.8,59.1,30.25,ESE,115,0.0,0.0,79,0.00,,,0.00,Wunderground v.1.15,2013-08-25 07:00:00,
2013-08-25 03:05:00,65.7,59.4,30.25,ESE,115,0.0,0.0,80,0.00,,,0.00,Wunderground v.1.15,2013-08-25 07:05:00,
2013-08-25 03:11:00,65.6,59.3,30.25,ESE,115,0.0,0.0,80,0.00,,,0.00,Wunderground v.1.15,2013-08-25 07:11:00,
2013-08-25 03:16:00,65.6,59.6,30.25,ESE,115,0.0,0.0,81,0.00,,,0.00,Wunderground v.1.15,2013-08-25 07:16:00,
2013-08-25 03:21:00,65.6,59.6,30.25,ESE,115,0.0,0.0,81,0.00,,,0.00,Wunderground v.1.15,2013-08-25 07:21:00,
2013-08-25 03:26:00,65.6,59.6,30.25,ESE,115,0.0,0.0,81,0.00,,,0.00,Wunderground v.1.15,2013-08-25 07:26:00,
2013-08-25 03:31:00,65.4,59.4,30.25,ESE,115,0.0,0.0,81,0.00,,,0.00,Wunderground v.1.15,2013-08-25 07:31:00,
2013-08-25 03:36:00,65.4,59.8,30.25,ESE,115,0.0,0.0,82,0.00,,,0.00,Wunderground v.1.15,2013-08-25 07:36:00,
2013-08-25 03:41:00,65.2,59.6,30.25,ESE,115,0.0,0.0,82,0.00,,,0.00,Wunderground v.1.15,2013-08-25 07:41:00,
2013-08-25 03:46:00,65.1,59.8,30.26,ESE,115,0.0,0.0,83,0.00,,,0.00,Wunderground v.1.15,2013-08-25 07:46:00,
2013-08-25 03:51:00,64.9,59.6,30.26,ESE,115,0.0,0.0,83,0.00,,,0.00,Wunderground v.1.15,2013-08-25 07:51:00,
2013-08-25 03:57:00,64.8,59.5,30.26,ESE,115,0.0,0.0,83,0.00,,,0.00,Wunderground v.1.15,2013-08-25 07:57:00,
2013-08-25 04:02:00,64.6,59.7,30.26,ESE,115,0.0,0.0,84,0.00,,,0.00,Wunderground v.1.15,2013-08-25 08:02:00,
2013-08-25 04:07:00,64.5,59.6,30.26,ESE,115,0.0,0.0,84,0.00,,,0.00,Wunderground v.1.15,2013-08-25 08:07:00,
2013-08-25 04:12:00,64.3,59.4,30.26,ESE,115,0.0,0.0,84,0.00,,,0.00,Wunderground v.1.15,2013-08-25 08:12:00,
2013-08-25 04:17:00,64.3,59.4,30.26,ESE,115,0.0,0.0,84,0.00,,,0.00,Wunderground v.1.15,2013-08-25 08:17:00,
2013-08-25 04:22:00,64.1,59.2,30.26,ESE,115,0.0,0.0,84,0.00,,,0.00,Wunderground v.1.15,2013-08-25 08:22:00,
2013-08-25 04:27:00,64.0,59.4,30.27,ESE,115,0.0,0.0,85,0.00,,,0.00,Wunderground v.1.15,2013-08-25 08:27:00,
2013-08-25 04:33:00,64.0,59.4,30.27,ESE,115,0.0,0.0,85,0.00,,,0.00,Wunderground v.1.15,2013-08-25 08:33:00,
2013-08-25 04:38:00,63.8,59.2,30.27,ESE,115,0.0,0.0,85,0.00,,,0.00,Wunderground v.1.15,2013-08-25 08:38:00,
2013-08-25 04:43:00,63.8,59.2,30.27,ESE,115,0.0,0.0,85,0.00,,,0.00,Wunderground v.1.15,2013-08-25 08:43:00,
2013-08-25 04:48:00,63.7,59.1,30.27,ESE,115,0.0,0.0,85,0.00,,,0.00,Wunderground v.1.15,2013-08-25 08:48:00,
2013-08-25 04:53:00,63.5,59.2,30.27,ESE,115,0.0,0.0,86,0.00,,,0.00,Wunderground v.1.15,2013-08-25 08:53:00,
2013-08-25 04:58:00,63.4,59.1,30.27,ESE,115,0.0,0.0,86,0.00,,,0.00,Wunderground v.1.15,2013-08-25 08:58:00,
2013-08-25 05:03:00,63.4,59.1,30.27,ESE,115,0.0,0.0,86,0.00,,,0.00,Wunderground v.1.15,2013-08-25 09:03:00,
2013-08-25 05:08:00,63.3,59.0,30.27,ESE,115,0.0,0.0,86,0.00,,,0.00,Wunderground v.1.15,2013-08-25 09:08:00,
2013-08-25 05:14:00,63.1,58.8,30.27,ESE,115,0.0,0.0,86,0.00,,,0.00,Wunderground v.1.15,2013-08-25 09:14:00,
2013-08-25 05:19:00,63.0,58.7,30.27,ESE,115,0.0,0.0,86,0.00,,,0.00,Wunderground v.1.15,2013-08-25 09:19:00,
2013-08-25 05:24:00,62.9,59.0,30.27,ESE,115,0.0,0.0,87,0.00,,,0.00,Wunderground v.1.15,2013-08-25 09:24:00,
2013-08-25 05:29:00,62.8,58.9,30.28,ESE,115,0.0,0.0,87,0.00,,,0.00,Wunderground v.1.15,2013-08-25 09:29:00,
2013-08-25 05:34:00,62.7,58.8,30.28,ESE,115,0.0,0.0,87,0.00,,,0.00,Wunderground v.1.15,2013-08-25 09:34:00,
2013-08-25 05:39:00,62.5,58.6,30.28,ESE,115,0.0,0.0,87,0.00,,,0.00,Wunderground v.1.15,2013-08-25 09:39:00,
2013-08-25 05:44:00,62.5,58.6,30.28,ESE,115,0.0,0.0,87,0.00,,,0.00,Wunderground v.1.15,2013-08-25 09:44:00,
2013-08-25 05:49:00,62.3,58.4,30.28,ESE,115,0.0,0.0,87,0.00,,,0.00,Wunderground v.1.15,2013-08-25 09:49:00,
2013-08-25 05:54:00,62.1,58.5,30.28,ESE,115,0.0,0.0,88,0.00,,,0.00,Wunderground v.1.15,2013-08-25 09:54:00,
2013-08-25 05:59:00,62.0,58.4,30.29,ESE,115,0.0,0.0,88,0.00,,,0.00,Wunderground v.1.15,2013-08-25 09:59:00,
2013-08-25 06:04:00,61.9,58.3,30.28,ESE,115,0.0,0.0,88,0.00,,,0.00,Wunderground v.1.15,2013-08-25 10:04:00,
2013-08-25 06:10:00,61.8,58.5,30.28,ESE,115,0.0,0.0,89,0.00,,,0.00,Wunderground v.1.15,2013-08-25 10:10:00,
2013-08-25 06:15:00,61.7,58.4,30.28,ESE,115,0.0,0.0,89,0.00,,,0.00,Wunderground v.1.15,2013-08-25 10:15:00,
2013-08-25 06:20:00,61.6,58.3,30.29,ESE,115,0.0,0.0,89,0.00,,,0.00,Wunderground v.1.15,2013-08-25 10:20:00,
2013-08-25 06:25:00,61.5,58.5,30.29,ESE,115,0.0,0.0,90,0.00,,,0.00,Wunderground v.1.15,2013-08-25 10:25:00,
2013-08-25 06:30:00,61.3,58.3,30.29,ESE,115,0.0,0.0,90,0.00,,,0.00,Wunderground v.1.15,2013-08-25 10:30:00,
2013-08-25 06:35:00,61.3,58.3,30.29,ESE,115,0.0,0.0,90,0.00,,,0.00,Wunderground v.1.15,2013-08-25 10:35:00,
2013-08-25 06:40:00,61.3,58.7,30.29,ESE,115,0.0,0.0,91,0.00,,,0.00,Wunderground v.1.15,2013-08-25 10:40:00,
2013-08-25 06:46:00,61.1,58.5,30.29,ESE,115,0.0,0.0,91,0.00,,,0.00,Wunderground v.1.15,2013-08-25 10:46:00,
2013-08-25 06:51:00,61.0,58.4,30.30,ESE,115,0.0,0.0,91,0.00,,,0.00,Wunderground v.1.15,2013-08-25 10:51:00,
2013-08-25 06:56:00,60.9,58.3,30.30,ESE,115,0.0,0.0,91,0.00,,,0.00,Wunderground v.1.15,2013-08-25 10:56:00,
2013-08-25 07:01:00,60.9,58.6,30.30,ESE,115,0.0,0.0,92,0.00,,,0.00,Wunderground v.1.15,2013-08-25 11:01:00,
2013-08-25 07:06:00,60.9,58.6,30.31,ESE,115,0.0,0.0,92,0.00,,,0.00,Wunderground v.1.15,2013-08-25 11:06:00,
2013-08-25 07:11:00,60.8,58.5,30.31,ESE,115,0.0,0.0,92,0.00,,,0.00,Wunderground v.1.15,2013-08-25 11:11:00,
2013-08-25 07:17:00,60.7,58.4,30.31,ESE,115,0.0,0.0,92,0.00,,,0.00,Wunderground v.1.15,2013-08-25 11:17:00,
2013-08-25 07:22:00,60.6,58.3,30.31,ESE,115,0.0,0.0,92,0.00,,,0.00,Wunderground v.1.15,2013-08-25 11:22:00,
2013-08-25 07:27:00,60.6,58.6,30.31,ESE,115,0.0,0.0,93,0.00,,,0.00,Wunderground v.1.15,2013-08-25 11:27:00,
2013-08-25 07:32:00,60.7,58.7,30.32,ESE,115,0.0,0.0,93,0.00,,,0.00,Wunderground v.1.15,2013-08-25 11:32:00,
2013-08-25 07:37:00,60.7,58.7,30.32,ESE,115,0.0,0.0,93,0.00,,,0.00,Wunderground v.1.15,2013-08-25 11:37:00,
2013-08-25 07:43:00,60.7,58.7,30.32,ESE,115,0.0,0.0,93,0.00,,,0.00,Wunderground v.1.15,2013-08-25 11:43:00,
2013-08-25 07:48:00,60.8,59.1,30.32,ESE,115,0.0,0.0,94,0.00,,,0.00,Wunderground v.1.15,2013-08-25 11:48:00,
2013-08-25 07:53:00,61.1,59.4,30.32,ESE,115,0.0,0.0,94,0.00,,,0.00,Wunderground v.1.15,2013-08-25 11:53:00,
2013-08-25 07:58:00,61.4,60.0,30.32,ESE,115,0.0,0.0,95,0.00,,,0.00,Wunderground v.1.15,2013-08-25 11:58:00,
2013-08-25 08:03:00,61.6,60.2,30.32,ESE,115,0.0,0.0,95,0.00,,,0.00,Wunderground v.1.15,2013-08-25 12:03:00,
2013-08-25 08:08:00,62.1,60.7,30.32,ESE,115,0.0,0.0,95,0.00,,,0.00,Wunderground v.1.15,2013-08-25 12:08:00,
2013-08-25 08:13:00,62.7,61.5,30.32,ESE,115,0.0,0.0,96,0.00,,,0.00,Wunderground v.1.15,2013-08-25 12:13:00,
2013-08-25 08:18:00,63.3,61.8,30.32,ESE,115,0.0,0.0,95,0.00,,,0.00,Wunderground v.1.15,2013-08-25 12:18:00,
2013-08-25 08:23:00,63.9,62.4,30.32,ESE,115,0.0,0.0,95,0.00,,,0.00,Wunderground v.1.15,2013-08-25 12:23:00,
2013-08-25 08:28:00,64.7,62.6,30.33,ESE,115,0.0,0.0,93,0.00,,,0.00,Wunderground v.1.15,2013-08-25 12:28:00,
2013-08-25 08:33:00,65.1,62.7,30.33,ESE,115,0.0,0.0,92,0.00,,,0.00,Wunderground v.1.15,2013-08-25 12:33:00,
2013-08-25 08:38:00,65.5,63.1,30.32,ESE,115,0.0,0.0,92,0.00,,,0.00,Wunderground v.1.15,2013-08-25 12:38:00,
2013-08-25 08:44:00,66.2,62.5,30.33,ESE,115,0.0,1.0,88,0.00,,,0.00,Wunderground v.1.15,2013-08-25 12:44:00,
2013-08-25 08:49:00,66.9,62.9,30.33,ESE,115,0.0,1.0,87,0.00,,,0.00,Wunderground v.1.15,2013-08-25 12:49:00,
2013-08-25 08:54:00,67.5,63.2,30.33,ESE,115,0.0,0.0,86,0.00,,,0.00,Wunderground v.1.15,2013-08-25 12:54:00,
2013-08-25 08:59:00,67.8,63.5,30.33,ESE,115,0.0,0.0,86,0.00,,,0.00,Wunderground v.1.15,2013-08-25 12:59:00,
2013-08-25 09:04:00,68.2,63.5,30.32,ESE,115,0.0,0.0,85,0.00,,,0.00,Wunderground v.1.15,2013-08-25 13:04:00,
2013-08-25 09:09:00,68.5,63.8,30.32,ESE,115,0.0,0.0,85,0.00,,,0.00,Wunderground v.1.15,2013-08-25 13:09:00,
2013-08-25 09:14:00,68.7,64.0,30.32,ESE,115,0.0,0.0,85,0.00,,,0.00,Wunderground v.1.15,2013-08-25 13:14:00,
2013-08-25 09:20:00,69.1,64.1,30.32,ESE,115,0.0,0.0,84,0.00,,,0.00,Wunderground v.1.15,2013-08-25 13:20:00,
2013-08-25 09:25:00,69.3,63.9,30.32,ESE,115,0.0,1.0,83,0.00,,,0.00,Wunderground v.1.15,2013-08-25 13:25:00,
2013-08-25 09:30:00,69.8,64.1,30.32,ESE,115,0.0,0.0,82,0.00,,,0.00,Wunderground v.1.15,2013-08-25 13:30:00,
2013-08-25 09:35:00,70.7,64.6,30.32,ESE,115,0.0,2.0,81,0.00,,,0.00,Wunderground v.1.15,2013-08-25 13:35:00,
2013-08-25 09:40:00,71.4,64.5,30.32,ESE,115,0.0,0.0,79,0.00,,,0.00,Wunderground v.1.15,2013-08-25 13:40:00,
2013-08-25 09:45:00,71.7,64.8,30.32,ESE,115,0.0,0.0,79,0.00,,,0.00,Wunderground v.1.15,2013-08-25 13:45:00,
2013-08-25 09:51:00,71.9,64.7,30.32,ESE,115,0.0,1.0,78,0.00,,,0.00,Wunderground v.1.15,2013-08-25 13:51:00,
2013-08-25 09:56:00,72.2,64.6,30.32,ESE,115,0.0,1.0,77,0.00,,,0.00,Wunderground v.1.15,2013-08-25 13:56:00,
2013-08-25 10:01:00,72.6,65.0,30.32,ESE,115,0.0,1.0,77,0.00,,,0.00,Wunderground v.1.15,2013-08-25 14:01:00,
2013-08-25 10:06:00,72.9,65.3,30.32,ESE,115,0.0,1.0,77,0.00,,,0.00,Wunderground v.1.15,2013-08-25 14:06:00,
2013-08-25 10:11:00,73.0,65.4,30.32,ESE,115,0.0,0.0,77,0.00,,,0.00,Wunderground v.1.15,2013-08-25 14:11:00,
2013-08-25 10:16:00,73.2,65.6,30.32,ESE,115,0.0,1.0,77,0.00,,,0.00,Wunderground v.1.15,2013-08-25 14:16:00,
2013-08-25 10:21:00,73.5,65.8,30.32,ESE,115,0.0,0.0,77,0.00,,,0.00,Wunderground v.1.15,2013-08-25 14:21:00,
2013-08-25 10:26:00,73.8,65.8,30.31,SSE,162,0.0,1.0,76,0.00,,,0.00,Wunderground v.1.15,2013-08-25 14:26:00,
2013-08-25 10:31:00,74.0,65.2,30.32,SSE,162,0.0,0.0,74,0.00,,,0.00,Wunderground v.1.15,2013-08-25 14:31:00,
2013-08-25 10:36:00,74.3,65.1,30.32,SSE,162,0.0,1.0,73,0.00,,,0.00,Wunderground v.1.15,2013-08-25 14:36:00,
2013-08-25 10:42:00,74.5,64.9,30.32,SSE,162,0.0,1.0,72,0.00,,,0.00,Wunderground v.1.15,2013-08-25 14:42:00,
2013-08-25 10:47:00,74.6,65.0,30.32,SSE,162,0.0,1.0,72,0.00,,,0.00,Wunderground v.1.15,2013-08-25 14:47:00,
2013-08-25 10:52:00,74.7,65.5,30.32,SSE,164,2.0,2.0,73,0.00,,,0.00,Wunderground v.1.15,2013-08-25 14:52:00,
2013-08-25 10:57:00,74.9,64.9,30.32,SSE,164,0.0,2.0,71,0.00,,,0.00,Wunderground v.1.15,2013-08-25 14:57:00,
2013-08-25 11:02:00,75.1,64.2,30.31,SSE,164,0.0,0.0,69,0.00,,,0.00,Wunderground v.1.15,2013-08-25 15:02:00,
2013-08-25 11:07:00,75.3,66.0,30.32,SSE,164,0.0,2.0,73,0.00,,,0.00,Wunderground v.1.15,2013-08-25 15:07:00,
2013-08-25 11:12:00,75.5,65.4,30.31,WSW,246,0.0,1.0,71,0.00,,,0.00,Wunderground v.1.15,2013-08-25 15:12:00,
2013-08-25 11:17:00,75.6,65.9,30.31,WSW,251,3.0,3.0,72,0.00,,,0.00,Wunderground v.1.15,2013-08-25 15:17:00,
2013-08-25 11:22:00,75.8,66.1,30.31,WSW,251,0.0,1.0,72,0.00,,,0.00,Wunderground v.1.15,2013-08-25 15:22:00,
2013-08-25 11:27:00,76.2,66.1,30.31,WSW,251,0.0,1.0,71,0.00,,,0.00,Wunderground v.1.15,2013-08-25 15:27:00,
2013-08-25 11:32:00,76.4,65.5,30.31,West,262,1.0,1.0,69,0.00,,,0.00,Wunderground v.1.15,2013-08-25 15:32:00,
2013-08-25 11:38:00,76.5,64.7,30.31,West,262,0.0,1.0,67,0.00,,,0.00,Wunderground v.1.15,2013-08-25 15:38:00,
2013-08-25 11:43:00,76.7,63.2,30.31,West,262,1.0,1.0,63,0.00,,,0.00,Wunderground v.1.15,2013-08-25 15:43:00,
2013-08-25 11:48:00,77.1,64.0,30.31,North,360,0.0,3.0,64,0.00,,,0.00,Wunderground v.1.15,2013-08-25 15:48:00,
2013-08-25 11:54:00,77.3,62.8,30.31,North,360,0.0,1.0,61,0.00,,,0.00,Wunderground v.1.15,2013-08-25 15:54:00,
2013-08-25 11:59:00,77.6,64.5,30.31,North,360,0.0,1.0,64,0.00,,,0.00,Wunderground v.1.15,2013-08-25 15:59:00,
2013-08-25 12:04:00,77.9,63.8,30.31,North,360,0.0,0.0,62,0.00,,,0.00,Wunderground v.1.15,2013-08-25 16:04:00,
2013-08-25 12:09:00,78.0,60.5,30.31,NNW,332,0.0,3.0,55,0.00,,,0.00,Wunderground v.1.15,2013-08-25 16:09:00,
2013-08-25 12:14:00,78.3,62.3,30.31,NNW,348,0.0,2.0,58,0.00,,,0.00,Wunderground v.1.15,2013-08-25 16:14:00,
2013-08-25 12:19:00,78.7,62.7,30.30,NW,316,2.0,2.0,58,0.00,,,0.00,Wunderground v.1.15,2013-08-25 16:19:00,
2013-08-25 12:24:00,78.9,61.4,30.30,NW,307,0.0,6.0,55,0.00,,,0.00,Wunderground v.1.15,2013-08-25 16:24:00,
2013-08-25 12:29:00,79.2,61.6,30.30,WSW,241,0.0,6.0,55,0.00,,,0.00,Wunderground v.1.15,2013-08-25 16:29:00,
2013-08-25 12:34:00,79.3,61.7,30.30,WSW,241,2.0,2.0,55,0.00,,,0.00,Wunderground v.1.15,2013-08-25 16:34:00,
2013-08-25 12:39:00,79.4,62.3,30.30,WSW,241,0.0,2.0,56,0.00,,,0.00,Wunderground v.1.15,2013-08-25 16:39:00,
2013-08-25 12:45:00,79.6,61.5,30.30,West,261,0.0,3.0,54,0.00,,,0.00,Wunderground v.1.15,2013-08-25 16:45:00,
2013-08-25 12:50:00,79.6,60.4,30.30,West,261,0.0,0.0,52,0.00,,,0.00,Wunderground v.1.15,2013-08-25 16:50:00,
2013-08-25 12:55:00,79.5,60.9,30.30,West,267,0.0,3.0,53,0.00,,,0.00,Wunderground v.1.15,2013-08-25 16:55:00,
2013-08-25 13:00:00,79.6,60.4,30.29,NNE,22,0.0,1.0,52,0.00,,,0.00,Wunderground v.1.15,2013-08-25 17:00:00,
2013-08-25 13:05:00,79.8,61.7,30.29,NNE,14,2.0,3.0,54,0.00,,,0.00,Wunderground v.1.15,2013-08-25 17:05:00,
2013-08-25 13:11:00,80.2,61.0,30.29,NE,44,3.0,4.0,52,0.00,,,0.00,Wunderground v.1.15,2013-08-25 17:11:00,
2013-08-25 13:16:00,80.2,61.5,30.29,NW,306,0.0,4.0,53,0.00,,,0.00,Wunderground v.1.15,2013-08-25 17:16:00,
2013-08-25 13:21:00,80.4,60.1,30.29,NW,306,0.0,1.0,50,0.00,,,0.00,Wunderground v.1.15,2013-08-25 17:21:00,
2013-08-25 13:27:00,80.5,62.3,30.29,NW,306,0.0,1.0,54,0.00,,,0.00,Wunderground v.1.15,2013-08-25 17:27:00,
2013-08-25 13:32:00,80.7,60.9,30.29,NE,38,0.0,4.0,51,0.00,,,0.00,Wunderground v.1.15,2013-08-25 17:32:00,
2013-08-25 13:37:00,80.7,61.4,30.28,NE,39,0.0,4.0,52,0.00,,,0.00,Wunderground v.1.15,2013-08-25 17:37:00,
2013-08-25 13:42:00,81.0,62.3,30.28,NE,39,1.0,1.0,53,0.00,,,0.00,Wunderground v.1.15,2013-08-25 17:42:00,
2013-08-25 13:47:00,81.3,62.0,30.28,West,280,4.0,6.0,52,0.00,,,0.00,Wunderground v.1.15,2013-08-25 17:47:00,
2013-08-25 13:52:00,81.4,61.0,30.28,NNW,327,0.0,1.0,50,0.00,,,0.00,Wunderground v.1.15,2013-08-25 17:52:00,
2013-08-25 13:57:00,81.5,61.6,30.28,NW,306,2.0,3.0,51,0.00,,,0.00,Wunderground v.1.15,2013-08-25 17:57:00,
2013-08-25 14:02:00,81.4,62.1,30.27,WSW,257,0.0,2.0,52,0.00,,,0.00,Wunderground v.1.15,2013-08-25 18:02:00,
2013-08-25 14:07:00,81.3,61.4,30.27,West,268,3.0,7.0,51,0.00,,,0.00,Wunderground v.1.15,2013-08-25 18:07:00,
2013-08-25 14:13:00,81.2,60.8,30.28,West,281,3.0,6.0,50,0.00,,,0.00,Wunderground v.1.15,2013-08-25 18:13:00,
2013-08-25 14:18:00,81.3,60.3,30.28,West,279,0.0,6.0,49,0.00,,,0.00,Wunderground v.1.15,2013-08-25 18:18:00,
2013-08-25 14:23:00,81.7,62.4,30.27,ENE,57,2.0,4.0,52,0.00,,,0.00,Wunderground v.1.15,2013-08-25 18:23:00,
2013-08-25 14:28:00,81.9,61.4,30.27,West,278,0.0,8.0,50,0.00,,,0.00,Wunderground v.1.15,2013-08-25 18:28:00,
2013-08-25 14:33:00,81.8,60.8,30.27,West,275,0.0,5.0,49,0.00,,,0.00,Wunderground v.1.15,2013-08-25 18:33:00,
2013-08-25 14:38:00,81.9,60.9,30.27,West,272,2.0,5.0,49,0.00,,,0.00,Wunderground v.1.15,2013-08-25 18:38:00,
2013-08-25 14:43:00,81.8,60.2,30.27,West,267,0.0,3.0,48,0.00,,,0.00,Wunderground v.1.15,2013-08-25 18:43:00,
2013-08-25 14:49:00,81.9,60.3,30.27,WNW,302,2.0,3.0,48,0.00,,,0.00,Wunderground v.1.15,2013-08-25 18:49:00,
2013-08-25 14:54:00,82.2,58.7,30.27,West,273,0.0,3.0,45,0.00,,,0.00,Wunderground v.1.15,2013-08-25 18:54:00,
2013-08-25 14:59:00,82.4,60.7,30.26,North,360,0.0,4.0,48,0.00,,,0.00,Wunderground v.1.15,2013-08-25 18:59:00,
2013-08-25 15:04:00,82.4,58.9,30.27,North,360,0.0,1.0,45,0.00,,,0.00,Wunderground v.1.15,2013-08-25 19:04:00,
2013-08-25 15:09:00,82.5,59.6,30.26,North,5,2.0,4.0,46,0.00,,,0.00,Wunderground v.1.15,2013-08-25 19:09:00,
2013-08-25 15:14:00,82.8,59.9,30.26,NE,38,0.0,3.0,46,0.00,,,0.00,Wunderground v.1.15,2013-08-25 19:14:00,
2013-08-25 15:19:00,83.0,60.1,30.26,WNW,294,0.0,1.0,46,0.00,,,0.00,Wunderground v.1.15,2013-08-25 19:19:00,
2013-08-25 15:25:00,83.0,60.7,30.26,WNW,286,0.0,2.0,47,0.00,,,0.00,Wunderground v.1.15,2013-08-25 19:25:00,
2013-08-25 15:30:00,83.0,61.3,30.26,NNW,335,1.0,1.0,48,0.00,,,0.00,Wunderground v.1.15,2013-08-25 19:30:00,
2013-08-25 15:35:00,83.0,58.8,30.26,WNW,284,1.0,4.0,44,0.00,,,0.00,Wunderground v.1.15,2013-08-25 19:35:00,
2013-08-25 15:40:00,82.9,59.4,30.26,WNW,294,0.0,1.0,45,0.00,,,0.00,Wunderground v.1.15,2013-08-25 19:40:00,
2013-08-25 15:45:00,82.9,58.7,30.26,NNW,338,0.0,4.0,44,0.00,,,0.00,Wunderground v.1.15,2013-08-25 19:45:00,
2013-08-25 15:51:00,82.8,59.3,30.26,West,281,2.0,2.0,45,0.00,,,0.00,Wunderground v.1.15,2013-08-25 19:51:00,
2013-08-25 15:56:00,82.8,60.5,30.26,WNW,298,0.0,4.0,47,0.00,,,0.00,Wunderground v.1.15,2013-08-25 19:56:00,
2013-08-25 16:01:00,82.8,60.5,30.25,WNW,298,1.0,2.0,47,0.00,,,0.00,Wunderground v.1.15,2013-08-25 20:01:00,
2013-08-25 16:06:00,82.9,60.6,30.25,NNW,328,0.0,4.0,47,0.00,,,0.00,Wunderground v.1.15,2013-08-25 20:06:00,
2013-08-25 16:11:00,83.0,60.7,30.25,WNW,290,2.0,2.0,47,0.00,,,0.00,Wunderground v.1.15,2013-08-25 20:11:00,
2013-08-25 16:16:00,83.1,59.6,30.25,NNE,30,1.0,2.0,45,0.00,,,0.00,Wunderground v.1.15,2013-08-25 20:16:00,
2013-08-25 16:21:00,83.2,60.3,30.25,North,5,0.0,1.0,46,0.00,,,0.00,Wunderground v.1.15,2013-08-25 20:21:00,
2013-08-25 16:26:00,83.2,59.6,30.25,North,360,0.0,3.0,45,0.00,,,0.00,Wunderground v.1.15,2013-08-25 20:26:00,
2013-08-25 16:31:00,83.3,60.4,30.24,WNW,292,1.0,1.0,46,0.00,,,0.00,Wunderground v.1.15,2013-08-25 20:31:00,
2013-08-25 16:36:00,83.3,59.1,30.24,NW,317,1.0,4.0,44,0.00,,,0.00,Wunderground v.1.15,2013-08-25 20:36:00,
2013-08-25 16:41:00,83.3,60.4,30.24,NW,317,0.0,1.0,46,0.00,,,0.00,Wunderground v.1.15,2013-08-25 20:41:00,
2013-08-25 16:47:00,83.1,60.2,30.24,SSW,196,2.0,3.0,46,0.00,,,0.00,Wunderground v.1.15,2013-08-25 20:47:00,
2013-08-25 16:52:00,82.9,59.4,30.24,SSW,196,1.0,1.0,45,0.00,,,0.00,Wunderground v.1.15,2013-08-25 20:52:00,
2013-08-25 16:57:00,82.8,59.9,30.24,SSW,196,0.0,3.0,46,0.00,,,0.00,Wunderground v.1.15,2013-08-25 20:57:00,
2013-08-25 17:02:00,83.0,60.7,30.24,SSW,196,0.0,1.0,47,0.00,,,0.00,Wunderground v.1.15,2013-08-25 21:02:00,
2013-08-25 17:07:00,83.3,61.6,30.23,WNW,294,0.0,3.0,48,0.00,,,0.00,Wunderground v.1.15,2013-08-25 21:07:00,
2013-08-25 17:13:00,83.5,61.7,30.23,WNW,283,0.0,3.0,48,0.00,,,0.00,Wunderground v.1.15,2013-08-25 21:13:00,
2013-08-25 17:18:00,83.5,62.9,30.23,WNW,283,0.0,3.0,50,0.00,,,0.00,Wunderground v.1.15,2013-08-25 21:18:00,
2013-08-25 17:23:00,83.5,62.9,30.23,WNW,283,0.0,1.0,50,0.00,,,0.00,Wunderground v.1.15,2013-08-25 21:23:00,
2013-08-25 17:28:00,83.5,61.7,30.23,WNW,283,0.0,1.0,48,0.00,,,0.00,Wunderground v.1.15,2013-08-25 21:28:00,
2013-08-25 17:33:00,83.5,61.7,30.23,WNW,283,0.0,1.0,48,0.00,,,0.00,Wunderground v.1.15,2013-08-25 21:33:00,
2013-08-25 17:38:00,83.6,61.2,30.22,WNW,286,0.0,2.0,47,0.00,,,0.00,Wunderground v.1.15,2013-08-25 21:38:00,
2013-08-25 17:43:00,83.7,61.9,30.22,WNW,288,0.0,4.0,48,0.00,,,0.00,Wunderground v.1.15,2013-08-25 21:43:00,
2013-08-25 17:48:00,83.8,63.7,30.23,WNW,288,0.0,4.0,51,0.00,,,0.00,Wunderground v.1.15,2013-08-25 21:48:00,
2013-08-25 17:53:00,83.8,63.2,30.22,WNW,288,0.0,1.0,50,0.00,,,0.00,Wunderground v.1.15,2013-08-25 21:53:00,
2013-08-25 17:58:00,83.8,62.0,30.23,WNW,288,0.0,2.0,48,0.00,,,0.00,Wunderground v.1.15,2013-08-25 21:58:00,
2013-08-25 18:03:00,83.6,61.8,30.22,WNW,288,0.0,2.0,48,0.00,,,0.00,Wunderground v.1.15,2013-08-25 22:03:00,
2013-08-25 18:09:00,83.5,61.1,30.23,WNW,283,1.0,2.0,47,0.00,,,0.00,Wunderground v.1.15,2013-08-25 22:09:00,
2013-08-25 18:14:00,83.6,61.8,30.23,WNW,283,0.0,3.0,48,0.00,,,0.00,Wunderground v.1.15,2013-08-25 22:14:00,
2013-08-25 18:19:00,83.6,60.6,30.22,West,275,0.0,3.0,46,0.00,,,0.00,Wunderground v.1.15,2013-08-25 22:19:00,
2013-08-25 18:49:00,83.0,59.5,30.22,West,275,0.0,0.0,45,0.00,,,0.00,Wunderground v.1.15,2013-08-25 22:49:00,
2013-08-25 18:54:00,82.8,59.3,30.22,West,275,0.0,1.0,45,0.00,,,0.00,Wunderground v.1.15,2013-08-25 22:54:00,
2013-08-25 18:59:00,82.0,60.4,30.22,West,275,0.0,0.0,48,0.00,,,0.00,Wunderground v.1.15,2013-08-25 22:59:00,
2013-08-25 19:04:00,81.7,60.1,30.22,West,275,0.0,1.0,48,0.00,,,0.00,Wunderground v.1.15,2013-08-25 23:04:00,
2013-08-25 19:09:00,81.5,61.1,30.22,West,275,0.0,1.0,50,0.00,,,0.00,Wunderground v.1.15,2013-08-25 23:09:00,
2013-08-25 19:14:00,81.5,59.9,30.22,West,275,0.0,0.0,48,0.00,,,0.00,Wunderground v.1.15,2013-08-25 23:14:00,
2013-08-25 19:19:00,81.4,60.4,30.22,West,275,0.0,0.0,49,0.00,,,0.00,Wunderground v.1.15,2013-08-25 23:19:00,
2013-08-25 19:24:00,81.3,59.7,30.22,West,275,0.0,0.0,48,0.00,,,0.00,Wunderground v.1.15,2013-08-25 23:24:00,
2013-08-25 19:29:00,81.1,60.1,30.22,West,275,0.0,0.0,49,0.00,,,0.00,Wunderground v.1.15,2013-08-25 23:29:00,
2013-08-25 19:34:00,80.9,59.9,30.22,West,275,0.0,0.0,49,0.00,,,0.00,Wunderground v.1.15,2013-08-25 23:34:00,
2013-08-25 19:39:00,80.6,60.8,30.22,West,275,0.0,0.0,51,0.00,,,0.00,Wunderground v.1.15,2013-08-25 23:39:00,
2013-08-25 19:44:00,80.3,61.1,30.22,West,275,0.0,0.0,52,0.00,,,0.00,Wunderground v.1.15,2013-08-25 23:44:00,
2013-08-25 19:49:00,79.9,61.8,30.22,West,275,0.0,0.0,54,0.00,,,0.00,Wunderground v.1.15,2013-08-25 23:49:00,
2013-08-25 19:54:00,79.4,61.8,30.22,West,275,0.0,0.0,55,0.00,,,0.00,Wunderground v.1.15,2013-08-25 23:54:00,
2013-08-25 19:59:00,78.8,61.3,30.22,West,275,0.0,0.0,55,0.00,,,0.00,Wunderground v.1.15,2013-08-25 23:59:00,
2013-08-25 20:05:00,78.0,60.5,30.22,West,275,0.0,0.0,55,0.00,,,0.00,Wunderground v.1.15,2013-08-26 00:05:00,
2013-08-25 20:10:00,77.4,60.5,30.22,West,275,0.0,0.0,56,0.00,,,0.00,Wunderground v.1.15,2013-08-26 00:10:00,
2013-08-25 20:15:00,76.7,60.3,30.22,West,275,0.0,0.0,57,0.00,,,0.00,Wunderground v.1.15,2013-08-26 00:15:00,
2013-08-25 20:20:00,76.2,60.3,30.22,West,275,0.0,0.0,58,0.00,,,0.00,Wunderground v.1.15,2013-08-26 00:20:00,
2013-08-25 20:25:00,75.7,59.4,30.22,West,275,0.0,0.0,57,0.00,,,0.00,Wunderground v.1.15,2013-08-26 00:25:00,
2013-08-25 20:30:00,75.2,59.4,30.23,West,275,0.0,0.0,58,0.00,,,0.00,Wunderground v.1.15,2013-08-26 00:30:00,
2013-08-25 20:35:00,74.8,60.0,30.23,West,275,0.0,0.0,60,0.00,,,0.00,Wunderground v.1.15,2013-08-26 00:35:00,
2013-08-25 20:40:00,74.3,60.4,30.23,West,275,0.0,0.0,62,0.00,,,0.00,Wunderground v.1.15,2013-08-26 00:40:00,
2013-08-25 20:45:00,73.9,61.0,30.23,West,275,0.0,0.0,64,0.00,,,0.00,Wunderground v.1.15,2013-08-26 00:45:00,
2013-08-25 20:50:00,73.4,60.9,30.23,West,275,0.0,0.0,65,0.00,,,0.00,Wunderground v.1.15,2013-08-26 00:50:00,
2013-08-25 20:55:00,73.1,61.1,30.23,West,275,0.0,0.0,66,0.00,,,0.00,Wunderground v.1.15,2013-08-26 00:55:00,
2013-08-25 21:00:00,72.7,61.1,30.23,West,275,0.0,0.0,67,0.00,,,0.00,Wunderground v.1.15,2013-08-26 01:00:00,
2013-08-25 21:05:00,72.3,61.1,30.23,West,275,0.0,0.0,68,0.00,,,0.00,Wunderground v.1.15,2013-08-26 01:05:00,
2013-08-25 21:10:00,72.0,61.3,30.23,West,275,0.0,0.0,69,0.00,,,0.00,Wunderground v.1.15,2013-08-26 01:10:00,
2013-08-25 21:15:00,71.7,61.8,30.22,West,275,0.0,0.0,71,0.00,,,0.00,Wunderground v.1.15,2013-08-26 01:15:00,
2013-08-25 21:20:00,71.4,61.5,30.22,West,275,0.0,0.0,71,0.00,,,0.00,Wunderground v.1.15,2013-08-26 01:20:00,
2013-08-25 21:25:00,71.2,61.7,30.22,West,275,0.0,0.0,72,0.00,,,0.00,Wunderground v.1.15,2013-08-26 01:25:00,
2013-08-25 21:30:00,71.0,61.9,30.22,West,275,0.0,0.0,73,0.00,,,0.00,Wunderground v.1.15,2013-08-26 01:30:00,
2013-08-25 21:35:00,70.8,61.7,30.23,West,275,0.0,0.0,73,0.00,,,0.00,Wunderground v.1.15,2013-08-26 01:35:00,
2013-08-25 21:41:00,70.4,61.3,30.23,West,275,0.0,0.0,73,0.00,,,0.00,Wunderground v.1.15,2013-08-26 01:41:00,
2013-08-25 21:46:00,70.1,61.0,30.23,West,275,0.0,0.0,73,0.00,,,0.00,Wunderground v.1.15,2013-08-26 01:46:00,
2013-08-25 21:51:00,69.9,61.2,30.23,West,275,0.0,0.0,74,0.00,,,0.00,Wunderground v.1.15,2013-08-26 01:51:00,
2013-08-25 21:56:00,69.7,60.7,30.23,West,275,0.0,0.0,73,0.00,,,0.00,Wunderground v.1.15,2013-08-26 01:56:00,
2013-08-25 22:01:00,69.5,60.8,30.24,West,275,0.0,0.0,74,0.00,,,0.00,Wunderground v.1.15,2013-08-26 02:01:00,
2013-08-25 22:06:00,69.2,60.6,30.23,West,275,0.0,0.0,74,0.00,,,0.00,Wunderground v.1.15,2013-08-26 02:06:00,
2013-08-25 22:11:00,69.1,59.3,30.24,West,275,0.0,0.0,71,0.00,,,0.00,Wunderground v.1.15,2013-08-26 02:11:00,
2013-08-25 22:17:00,69.2,60.2,30.24,West,275,0.0,0.0,73,0.00,,,0.00,Wunderground v.1.15,2013-08-26 02:17:00,
2013-08-25 22:22:00,69.3,59.9,30.24,West,275,0.0,0.0,72,0.00,,,0.00,Wunderground v.1.15,2013-08-26 02:22:00,
2013-08-25 22:27:00,69.4,60.0,30.24,West,275,0.0,0.0,72,0.00,,,0.00,Wunderground v.1.15,2013-08-26 02:27:00,
2013-08-25 22:32:00,69.4,60.0,30.24,West,275,0.0,0.0,72,0.00,,,0.00,Wunderground v.1.15,2013-08-26 02:32:00,
2013-08-25 22:37:00,69.3,59.9,30.24,West,275,0.0,0.0,72,0.00,,,0.00,Wunderground v.1.15,2013-08-26 02:37:00,
2013-08-25 22:42:00,69.2,59.8,30.24,West,275,0.0,0.0,72,0.00,,,0.00,Wunderground v.1.15,2013-08-26 02:42:00,
2013-08-25 22:47:00,69.1,60.1,30.25,West,275,0.0,0.0,73,0.00,,,0.00,Wunderground v.1.15,2013-08-26 02:47:00,
2013-08-25 22:52:00,69.0,60.4,30.25,West,275,0.0,0.0,74,0.00,,,0.00,Wunderground v.1.15,2013-08-26 02:52:00,
2013-08-25 22:57:00,68.9,60.3,30.25,West,275,0.0,0.0,74,0.00,,,0.00,Wunderground v.1.15,2013-08-26 02:57:00,
2013-08-25 23:02:00,68.8,59.8,30.25,West,275,0.0,0.0,73,0.00,,,0.00,Wunderground v.1.15,2013-08-26 03:02:00,
2013-08-25 23:07:00,68.8,59.8,30.25,West,275,0.0,0.0,73,0.00,,,0.00,Wunderground v.1.15,2013-08-26 03:07:00,
2013-08-25 23:12:00,68.8,60.6,30.25,West,275,0.0,0.0,75,0.00,,,0.00,Wunderground v.1.15,2013-08-26 03:12:00,
2013-08-25 23:17:00,68.8,60.6,30.25,West,275,0.0,0.0,75,0.00,,,0.00,Wunderground v.1.15,2013-08-26 03:17:00,
2013-08-25 23:22:00,68.6,60.0,30.25,West,275,0.0,0.0,74,0.00,,,0.00,Wunderground v.1.15,2013-08-26 03:22:00,
2013-08-25 23:27:00,68.5,60.3,30.25,West,275,0.0,0.0,75,0.00,,,0.00,Wunderground v.1.15,2013-08-26 03:27:00,
2013-08-25 23:32:00,68.3,59.7,30.25,West,275,0.0,0.0,74,0.00,,,0.00,Wunderground v.1.15,2013-08-26 03:32:00,
2013-08-25 23:37:00,68.3,60.1,30.25,West,275,0.0,0.0,75,0.00,,,0.00,Wunderground v.1.15,2013-08-26 03:37:00,
2013-08-25 23:42:00,68.3,60.4,30.24,West,275,0.0,0.0,76,0.00,,,0.00,Wunderground v.1.15,2013-08-26 03:42:00,
2013-08-25 23:47:00,68.2,60.3,30.25,West,275,0.0,0.0,76,0.00,,,0.00,Wunderground v.1.15,2013-08-26 03:47:00,
2013-08-25 23:52:00,68.0,60.5,30.25,West,275,0.0,0.0,77,0.00,,,0.00,Wunderground v.1.15,2013-08-26 03:52:00,
2013-08-25 23:57:00,67.9,60.8,30.25,West,275,0.0,0.0,78,0.00,,,0.00,Wunderground v.1.15,2013-08-26 03:57:00,